Regional Weather Roundup
Issued by NWS

Home | Current Version | Previous Version | Graphics & Text | Print | Product List | Glossary On
Versions: 1 2 3 4 5 6 7 8 9 10 11 12 13 14 15 16 17 18 19 20 21 22 23 24 25 26 27 28 29 30 31 32 33 34 35 36 37 38 39 40 41 42 43 44 45 46 47 48 49 50
000
ASUS43 KLMK 260910
RWRKY
KENTUCKY REGIONAL WEATHER ROUNDUP
NATIONAL WEATHER SERVICE LOUISVILLE KY
500 AM EDT THU MAR 26 2015

NOTE "FAIR" INDICATES FEW OR NO CLOUDS BELOW 12,000 FEET
WITH NO SIGNIFICANT WEATHER AND/OR OBSTRUCTIONS TO VISIBILITY.

KYZ001>023-026-027-061>063-070>075-261000-
WESTERN AND SOUTH CENTRAL KENTUCKY

CITY           SKY/WX    TMP DP  RH WIND       PRES   REMARKS
PADUCAH        LGT RAIN  50  48  93 MISG      29.87S
HENDERSON      CLOUDY    48  45  87 NE13      29.87F
OWENSBORO      HVY RAIN  48  48 100 N10       29.88R FOG
HOPKINSVILLE   CLOUDY    57  56  94 W2        29.83F
BOWLING GREEN  LGT RAIN  63  53  70 NW8       29.84F
GLASGOW        CLOUDY    62  52  70 S8        29.83F
$$

KYZ024-025-028>034-038-045-046-053-261000-
NORTH CENTRAL KENTUCKY

CITY           SKY/WX    TMP DP  RH WIND       PRES   REMARKS
LOUISVILLE/SDF HVY RAIN  51  49  92 N12G28    29.86S FOG
LOUISVILLE/LOU LGT RAIN  52  48  86 N10       29.85F
FORT KNOX      HVY RAIN  52  50  93 NW14      29.84R FOG
$$

KYZ035>037-039>044-047>052-055>060-089>105-261000-
NORTHEAST KENTUCKY

CITY           SKY/WX    TMP DP  RH WIND       PRES   REMARKS
LEXINGTON      CLOUDY    59  51  75 S12       29.83F
COVINGTON      CLOUDY    48  46  93 N15       29.87F
FRANKFORT      CLOUDY    57  51  80 S9        29.80F
$$

KYZ054-064>069-076>088-106>120-261000-
SOUTHEAST KENTUCKY

CITY           SKY/WX    TMP DP  RH WIND       PRES   REMARKS
JACKSON        CLOUDY    60  48  64 VRB5      29.88F
LONDON         MOCLDY    61  48  62 S3        29.88F
SOMERSET       CLOUDY    61  52  72 SW6       29.89S
MIDDLESBORO    CLOUDY    63  55  75 SE7       29.92F
MONTICELLO     CLOUDY    65  56  72 S9G18     29.91S
$$




USA.gov is the U.S. government's official web portal to all federal, state and local government web resources and services.